Theta_e
316 316 316 316 316 316 316 316 317 317 318 318 318 318 318 317 316 315 305 313 317 327 325 310 311 309 308 305 308 308 305 304 304 310 311 325 321 326 330 329 330 332 333 339 347
315 315 315 315 315 315 315 316 316 317 317 317 317 317 317 316 312 309 320 326 331 330 310 308 307 307 306 304 306 306 304 306 308 316 314 323 322 324 327 327 328 331 340 344 344
314 314 314 314 314 314 315 315 316 316 316 317 317 316 316 316 305 306 339 333 332 327 312 311 310 306 304 304 303 303 303 307 308 310 321 323 322 329 328 323 328 327 336 340 340
313 313 313 313 313 314 314 315 315 316 315 316 316 315 315 314 298 310 341 339 335 320 312 309 307 304 302 302 303 301 304 306 307 313 321 321 324 326 329 327 331 334 339 340 338
312 313 313 313 313 313 314 314 315 315 315 315 314 314 313 303 304 319 337 335 322 313 310 307 305 303 302 303 302 301 303 303 305 309 318 324 322 324 327 332 335 337 338 338 338
312 312 312 312 312 313 313 314 314 313 313 313 313 314 309 298 308 319 325 316 313 312 309 307 305 305 304 303 303 304 303 303 307 311 320 319 321 323 326 332 333 335 336 338 337
312 311 311 312 312 313 313 313 313 313 315 313 313 314 308 302 315 317 316 314 313 311 308 308 306 306 307 304 306 304 303 310 313 315 318 322 317 318 327 332 332 333 335 337 337
312 311 311 311 312 312 313 313 313 316 316 314 316 315 302 309 313 312 313 312 311 311 309 309 307 307 306 307 304 303 302 299 314 318 320 319 305 318 330 331 330 331 333 331 331
312 311 311 311 311 312 312 312 314 319 317 317 315 309 303 315 310 315 314 311 310 309 309 309 308 305 306 303 301 301 297 298 311 318 319 317 308 320 330 330 329 330 330 328 326
311 311 311 311 311 311 312 312 316 319 319 319 317 305 308 306 311 314 314 315 314 310 308 307 306 304 303 302 294 297 298 299 301 317 319 315 315 320 328 329 329 330 330 329 330
311 311 311 311 311 311 310 311 307 306 310 304 304 304 305 310 312 312 314 313 311 309 303 303 302 299 301 301 300 299 298 298 301 315 316 316 314 318 326 328 327 328 329 329 328
310 311 311 311 311 311 308 308 306 307 302 306 305 305 308 309 304 308 314 309 308 303 302 302 299 302 301 301 300 299 298 298 301 304 316 313 315 319 324 326 328 328 328 328 325
310 310 311 311 310 306 306 307 309 308 301 303 305 305 307 308 304 305 311 308 305 303 302 300 301 302 301 300 299 300 299 299 299 305 308 307 306 313 320 327 328 330 331 329 325
310 309 310 309 304 303 306 307 310 308 298 300 303 306 308 308 304 310 311 309 305 302 302 303 304 302 301 301 302 298 303 301 300 300 297 309 296 311 317 320 325 326 327 327 325
309 310 310 307 303 303 306 309 309 307 289 301 303 310 307 304 306 307 312 310 304 303 303 300 301 301 301 302 303 301 303 302 302 300 299 304 300 305 318 316 320 325 327 328 327
309 309 308 305 305 308 308 309 308 295 287 298 302 303 304 305 305 306 308 311 309 304 303 303 305 305 304 305 304 306 303 299 302 302 295 300 301 301 312 316 319 325 328 328 327
308 308 306 306 309 308 309 306 294 288 298 298 300 303 300 302 302 304 303 304 302 298 299 302 303 306 306 303 305 303 301 295 293 293 292 300 300 302 312 320 322 322 327 328 326
307 305 306 309 311 310 305 299 289 293 297 301 302 301 300 303 303 302 303 302 304 302 300 297 295 302 305 304 302 301 301 295 288 290 294 299 296 301 312 316 319 323 327 328 322
305 305 311 310 312 307 302 292 292 296 300 301 302 299 299 302 302 302 304 304 307 308 300 298 297 305 305 306 305 300 298 302 296 296 294 297 302 309 314 316 319 321 326 323 321
302 304 309 308 315 308 298 291 296 299 303 304 296 300 296 300 299 301 301 306 305 309 311 303 297 304 306 306 305 303 304 297 299 290 289 295 297 299 308 313 318 320 323 324 321
303 307 309 307 314 308 297 297 299 303 303 302 299 299 300 298 300 299 300 305 305 309 311 308 301 301 305 303 303 304 301 299 300 298 292 291 296 310 311 313 317 320 324 323 320
301 299 308 308 303 297 296 294 296 299 303 305 306 303 301 301 298 299 300 303 306 307 305 308 303 297 300 307 308 303 303 303 299 295 298 296 296 310 311 314 317 320 323 323 322
298 298 307 305 298 294 294 295 297 298 300 305 303 303 304 301 295 301 303 307 303 306 303 309 301 294 295 300 306 304 305 305 303 300 297 294 298 310 312 312 315 318 321 321 320
298 294 298 297 295 293 292 292 293 298 297 302 303 300 298 299 301 297 299 304 301 302 312 311 304 299 293 296 302 300 302 303 302 297 298 299 301 307 310 311 314 319 320 320 319
296 292 293 290 291 292 293 292 292 292 296 298 296 295 295 294 296 296 298 296 298 306 307 306 295 297 299 301 302 302 301 302 301 301 297 300 302 307 311 312 312 318 320 319 318
295 293 294 291 291 291 291 290 290 291 293 293 293 293 296 295 294 292 291 292 294 301 300 303 294 297 292 295 297 296 299 301 302 302 302 302 303 311 312 311 311 316 319 319 318
296 296 295 287 290 290 290 290 290 291 294 293 292 292 291 296 293 294 294 294 295 294 294 296 296 294 288 296 297 292 299 300 302 304 304 301 306 312 312 313 312 316 318 319 319
Wind_Speed
17 17 17 17 17 16 16 16 15 14 14 14 14 14 13 13 11 3 6 5 5 6 7 4 3 5 3 4 3 3 5 7 6 8 3 9 10 5 3 7 7 11 5 12 18
18 16 16 17 17 16 16 17 16 15 15 14 14 14 13 12 3 6 8 6 4 9 9 8 6 7 5 5 5 5 7 11 4 7 6 12 11 13 8 11 7 11 10 19 18
18 18 17 18 18 17 17 17 17 16 15 14 13 13 11 8 4 1 1 11 10 10 6 5 5 4 4 3 5 5 8 6 8 7 6 12 11 10 10 12 14 21 17 19 19
18 19 19 19 20 20 19 18 17 17 16 14 12 11 9 2 1 3 8 11 14 6 6 7 4 6 4 6 4 5 6 6 2 10 8 11 9 8 12 4 9 16 18 19 19
20 20 21 21 21 22 20 20 20 18 16 13 10 8 4 1 6 2 9 12 10 5 6 5 7 5 7 5 6 5 4 5 5 3 3 9 15 10 17 4 10 17 18 18 16
21 22 23 22 22 22 22 20 19 19 15 10 5 3 2 3 2 0 10 8 10 5 3 4 5 3 4 3 4 6 3 3 4 2 4 9 7 7 12 9 13 18 18 17 17
22 23 24 24 23 23 22 20 20 18 13 5 4 3 1 8 6 7 6 1 9 5 5 3 2 1 4 4 1 2 3 1 3 0 3 8 5 19 5 12 15 15 14 14 11
22 23 24 24 24 23 23 20 20 14 3 7 8 1 6 2 1 4 5 4 2 2 2 3 3 2 1 2 2 3 1 5 1 5 4 11 13 16 10 15 15 16 14 13 13
23 23 24 25 24 24 22 20 12 5 11 13 4 1 5 3 4 1 7 4 6 2 2 6 2 2 2 3 3 2 4 4 3 7 5 10 8 7 14 15 16 16 17 15 15
23 24 25 25 25 23 21 11 3 7 5 4 3 3 4 1 4 1 3 8 4 6 5 2 3 2 3 3 5 4 3 3 3 10 10 13 11 5 14 17 17 18 18 19 18
24 24 25 24 23 20 9 2 2 1 1 5 6 6 9 8 4 3 4 7 4 2 2 2 3 4 4 2 1 1 2 4 2 8 10 15 13 6 12 14 17 19 19 18 17
27 25 25 24 23 18 2 5 4 3 8 4 7 8 8 3 4 3 7 5 5 4 4 3 2 4 4 5 3 2 3 5 5 4 8 5 16 8 16 21 21 22 21 19 16
25 25 24 23 21 2 3 8 3 3 3 6 3 3 2 5 4 4 7 4 3 4 3 3 2 8 5 6 5 3 5 5 4 4 6 2 8 10 13 17 16 16 16 15 18
25 24 23 24 0 2 2 2 6 5 2 10 5 3 2 1 1 4 5 3 2 5 5 4 0 6 4 5 7 4 9 6 5 5 4 9 5 6 10 16 19 19 18 18 20
26 24 20 8 1 1 4 7 1 3 2 12 5 1 7 3 6 2 2 1 7 5 4 1 3 3 3 2 7 2 4 5 6 7 3 8 6 3 6 12 22 23 23 20 21
27 24 12 2 1 3 9 6 3 1 3 6 6 10 9 5 6 1 3 3 2 4 3 6 1 4 2 3 9 2 5 3 2 4 5 6 11 5 7 12 12 18 24 22 21
28 23 1 1 4 7 7 1 0 2 3 7 6 8 4 8 8 8 1 3 3 4 5 2 8 6 6 8 4 4 4 4 6 5 6 1 8 8 10 17 16 10 18 20 18
28 11 2 2 6 6 1 2 3 1 2 2 5 4 6 12 8 10 4 7 8 4 1 3 3 1 4 5 2 3 2 4 4 5 8 4 6 6 5 7 12 13 11 18 21
20 2 1 7 2 2 1 3 3 2 2 5 3 5 5 7 7 9 7 8 9 11 4 2 4 4 6 4 4 4 5 1 1 1 5 3 4 9 7 10 7 9 12 20 22
4 3 3 13 3 2 4 3 3 1 3 1 3 4 5 8 8 8 7 7 9 8 7 5 6 1 4 2 3 4 5 3 3 4 7 4 3 8 6 11 8 13 17 17 19
2 1 4 12 2 4 3 2 1 1 5 2 1 2 2 2 3 3 5 4 9 11 6 7 2 3 5 5 8 1 3 3 2 2 5 7 5 6 14 14 15 18 14 16 19
3 1 6 7 2 2 2 2 4 4 6 3 3 3 2 2 2 2 1 2 6 6 5 5 2 5 7 8 5 2 4 4 2 3 2 4 7 11 11 15 11 10 11 13 16
3 3 4 5 1 2 1 2 4 5 4 2 2 2 1 3 2 1 2 2 11 8 7 7 0 5 7 3 2 3 2 3 3 2 5 4 4 7 19 16 13 12 13 14 15
2 3 4 5 3 3 2 2 2 4 3 4 2 2 1 2 1 1 1 2 12 8 4 3 2 5 8 11 6 12 9 5 3 5 7 9 15 23 21 19 13 12 13 15 16
4 3 1 3 4 4 1 1 1 1 4 7 3 5 2 2 2 2 1 6 7 6 3 4 4 9 10 12 15 16 16 15 14 15 11 15 17 19 23 19 19 10 10 15 17
2 1 1 1 2 1 1 2 1 3 5 2 3 6 4 3 1 1 4 1 5 4 6 3 4 9 14 13 16 21 20 16 18 19 19 20 21 9 12 14 14 13 14 15 17
1 2 2 2 1 2 2 4 3 1 5 7 5 4 3 2 6 10 11 12 13 10 6 4 3 4 6 6 12 15 17 19 17 11 9 14 12 17 21 15 15 14 18 20 20
Wind_Direction
358 358 351 349 346 342 339 335 332 325 320 325 327 325 326 332 314 162 245 222 200 240 189 143 121 120 127 135 137 164 188 206 209 180 207 159 191 175 152 156 169 167 131 136 144
357 349 347 345 339 336 337 331 327 323 323 326 325 325 331 336 300 261 255 221 187 140 164 173 150 147 155 153 156 205 209 208 210 181 185 177 203 167 174 167 166 152 109 137 148
350 343 349 341 336 335 336 327 323 321 324 323 323 326 335 322 297 206 335 214 186 187 175 178 138 164 165 165 167 154 215 208 228 189 146 176 201 177 168 191 184 178 154 158 158
347 343 343 340 337 333 333 325 321 321 322 322 325 331 327 283 42 33 349 150 168 188 130 130 130 155 163 181 157 194 234 217 272 163 152 173 168 201 197 125 191 169 160 165 166
347 343 341 342 336 333 330 324 322 320 318 318 326 328 289 29 253 76 87 117 140 150 148 146 159 161 187 164 152 214 217 227 272 132 182 159 191 194 214 181 158 157 161 172 172
343 342 341 339 336 332 327 323 319 317 313 308 303 295 247 271 67 47 129 134 147 137 153 166 181 198 115 160 207 184 213 335 346 159 156 186 186 204 220 172 155 162 169 173 176
341 340 338 336 334 330 326 323 319 318 308 280 189 197 167 260 111 85 141 156 162 151 158 213 153 213 137 155 163 118 203 300 342 177 161 166 165 219 179 169 155 166 166 162 160
338 335 334 333 332 330 326 323 320 319 88 138 153 183 252 230 176 253 184 144 157 181 137 163 186 60 288 112 76 176 201 217 49 180 165 206 232 209 165 160 163 164 159 148 134
336 333 331 331 333 330 326 322 317 79 110 135 134 298 280 299 267 93 168 151 145 156 177 116 145 55 149 127 168 65 207 195 177 195 164 213 237 161 163 171 169 172 171 154 154
335 333 330 330 332 330 325 313 146 119 135 204 239 242 243 87 299 88 167 163 129 131 115 127 85 130 123 193 214 178 176 177 158 189 193 204 255 150 179 180 181 182 183 185 186
335 333 329 329 330 329 334 189 296 164 199 267 297 281 289 307 292 122 144 144 125 145 132 74 192 204 223 184 116 248 250 285 283 175 183 212 242 204 193 197 192 194 194 196 196
332 331 328 328 328 324 259 75 92 34 313 264 263 262 267 271 290 283 169 161 167 181 138 167 240 229 136 161 157 176 291 258 279 179 227 227 245 209 201 212 205 200 198 192 179
329 328 329 329 323 335 9 116 28 193 265 302 231 259 327 171 196 240 184 144 142 162 180 235 126 129 178 163 204 216 243 235 255 119 211 210 245 223 227 224 219 221 216 198 192
328 330 332 328 147 340 107 31 324 202 347 360 3 74 113 200 247 222 218 140 144 218 163 259 337 235 205 230 204 266 218 230 208 207 260 205 281 222 214 218 223 218 212 200 197
327 330 334 350 307 328 359 329 140 202 112 334 1 341 335 294 321 67 195 129 163 158 193 128 178 175 191 209 184 249 167 229 232 226 208 190 248 141 191 226 231 221 214 207 197
328 329 337 144 176 282 320 312 200 255 62 358 344 355 359 4 20 348 162 95 95 171 207 263 220 242 252 222 202 284 243 124 143 173 225 217 218 208 199 219 239 219 216 205 195
330 328 271 297 345 324 310 185 168 64 329 2 338 339 342 354 11 16 53 120 194 178 235 274 258 253 232 266 186 183 215 247 225 208 266 79 215 254 225 240 251 238 212 199 182
328 323 164 230 306 311 314 93 92 103 9 324 335 352 53 3 1 353 77 76 48 1 156 256 285 185 166 222 339 146 302 288 281 270 296 151 227 246 267 285 281 254 219 182 181
322 337 12 347 311 316 64 71 121 159 323 324 337 49 31 12 352 6 58 18 28 12 356 250 251 302 237 204 236 143 228 82 199 80 260 290 263 269 237 256 249 224 193 184 185
355 335 10 338 327 58 68 101 120 230 336 303 57 16 32 5 9 17 27 20 347 3 337 15 295 225 305 269 124 244 132 210 194 247 255 213 267 280 261 248 209 211 205 191 187
6 359 356 342 262 50 83 77 250 42 32 42 123 109 76 25 313 355 19 80 13 339 356 4 259 324 291 12 334 279 173 91 150 267 290 284 249 247 254 247 210 217 205 189 186
349 296 358 330 34 30 89 4 336 360 26 71 89 91 153 186 251 266 22 38 19 322 359 20 316 289 312 320 309 274 69 60 260 173 246 280 264 270 277 274 267 234 196 193 191
12 301 337 319 136 95 43 71 38 359 23 37 117 43 176 198 271 281 319 49 9 22 10 353 294 299 293 182 135 70 104 119 98 154 233 266 270 332 317 298 271 230 192 180 184
349 344 0 44 19 44 58 33 89 26 45 356 77 82 145 203 11 243 292 347 336 339 348 189 255 279 280 296 310 279 265 257 255 263 264 250 282 298 299 295 286 242 191 178 178
5 70 48 13 53 54 333 350 321 102 22 17 103 36 308 238 216 228 16 333 318 345 37 30 276 301 290 290 286 276 272 278 261 261 257 279 273 275 285 294 297 243 214 181 181
32 354 84 84 276 202 32 88 354 7 354 24 56 352 342 253 316 201 12 277 279 332 349 345 265 305 289 279 272 276 272 260 260 261 254 258 273 309 321 314 266 211 193 208 197
84 108 272 69 309 236 157 141 135 352 93 93 12 329 310 166 307 279 258 257 255 277 284 265 243 281 268 311 315 280 252 250 252 250 252 257 291 322 309 306 287 253 196 203 203